Location: Luxembourg
(49.6117°N, 6.1300°E)
Time: 15:07:12
(UTC+01:00)

N. Korean satellite - Pass Details

Date: 24 January 2019
Orbit: 457 x 510 km, 97.2° (Epoch: 18 February)

Event Time Altitude Azimuth Distance (km) Brightness Sun altitude
Rises 05:46:45 0° 29° (NNE) 2,619 10.6 -24.3°
Reaches altitude 10° 05:49:42 10° 55° (NE) 1,719 10.0 -23.8°
Maximum altitude 05:51:45 14° 89° (E) 1,457 10.0 -23.5°
Drops below altitude 10° 05:53:48 10° 123° (ESE) 1,695 10.1 -23.2°
Sets 05:56:39 0° 149° (SSE) 2,558 10.7 -22.7°
